Location: Rome
(43.2189°N, 75.4531°W)
Time: 06:02:28
(UTC+00:00)

N. Korean satellite - Visible Passes

Search period start: 09 December 2022 00:00
Search period end: 19 December 2022 00:00
Orbit: 420 x 452 km, 97.3° (Epoch: 08 December)

Date Brightness Start Highest point End Pass type
(mag) Time Alt. Az. Time Alt. Az. Time Alt. Az.
09 Dec 9.2 09:34:32 10° NE 09:36:54 18° E 09:39:15 10° SE visible
09 Dec 7.4 11:06:35 10° NNW 11:09:23 25° WNW 11:12:10 10° SW visible
10 Dec 6.2 10:27:01 10° N 10:30:24 85° WNW 10:33:43 10° SSW visible
10 Dec 9.7 22:30:47 10° SW 22:32:48 15° W 22:34:50 10° NW visible
11 Dec 8.5 09:48:15 10° NE 09:51:09 26° E 09:54:00 10° SSE visible
11 Dec 7.9 11:21:10 10° NNW 11:23:26 17° WNW 11:25:40 10° WSW visible
12 Dec 6.4 10:41:10 10° N 10:44:26 53° WNW 10:47:40 10° SSW visible
13 Dec 7.7 10:01:59 10° NNE 10:05:10 40° E 10:08:18 10° S visible
13 Dec 8.3 11:36:51 12° WNW 11:37:16 12° WNW 11:38:33 10° W visible
13 Dec 8.6 22:04:21 10° SSW 22:07:22 30° W 22:10:27 10° NNW visible
14 Dec 9.7 09:24:55 12° ENE 09:25:38 13° E 09:27:10 10° ESE visible
14 Dec 6.9 10:58:18 34° WNW 10:58:18 34° WNW 11:01:16 10° SW visible
15 Dec 6.7 10:19:12 61° SE 10:19:12 61° SE 10:22:13 10° S visible
15 Dec 9.4 22:18:34 10° SW 22:21:11 21° W 22:23:49 10° NW visible
16 Dec 9.2 09:39:54 18° ESE 09:39:54 18° ESE 09:41:47 10° SE visible
16 Dec 8.0 11:13:17 17° WSW 11:13:17 17° WSW 11:14:30 10° WSW visible
17 Dec 7.3 10:33:50 34° SSW 10:33:50 34° SSW 10:35:49 10° SSW visible
17 Dec 9.7 22:32:55 10° SW 22:34:48 14° W 22:36:42 10° WNW visible
18 Dec 8.8 09:54:18 20° SE 09:54:18 20° SE 09:55:48 10° SSE visible
